Regional Weather Roundup
Issued by NWS State College, PA

Home | Current Version | Previous Version | Graphics & Text | Print | Product List | Glossary Off
Versions: 1 2 3 4 5 6 7 8 9 10 11 12 13 14 15 16 17 18 19 20 21 22 23 24 25 26 27 28 29 30 31 32 33 34 35 36 37 38 39 40 41 42 43 44 45 46 47 48 49 50

000
ASUS41 KCTP 221610
RWRCTP

REGIONAL WEATHER ROUNDUP
NATIONAL WEATHER SERVICE STATE COLLEGE PA
1200 PM EDT MON SEP 22 2014

Note: "fair" indicates few or no clouds below 12,000 feet with no
significant weather and/or obstructions to visibility.

* = STATION THAT DOES NOT REPORT PRECIPITATION /E.G. RAIN...SNOW...ETC/
    THUNDER OR FOG.

PAZ002>004-007>009-013>016-020>023-029>032-221700-
WESTERN PENNSYLVANIA

CITY           SKY/WX    TMP DP  RH WIND       PRES   REMARKS
ERIE           CLOUDY    55  41  59 NW12      30.13R
MEADVILLE      CLOUDY    51  45  79 NW9       30.14R
FRANKLIN*      CLOUDY    50  45  81 W6        30.14R
NEW CASTLE       N/A     54  43  66 NW8       30.17R
BEAVER COUNTY  CLOUDY    55  41  58 NW10      30.15R
BUTLER*        CLOUDY    54  41  62 W9        30.16R
PITTSBURGH INT CLOUDY    56  42  59 NW13      30.15R
PITTSBURGH     CLOUDY    58  41  53 NW13      30.13R
INDIANA*       CLOUDY    54  46  76 VRB6G16   30.16R
LATROBE        CLOUDY    57  46  67 W12       30.14R
WASHINGTON CO* CLOUDY    57  43  58 NW7       30.17R
$$

PAZ004>006-010>012-017>019-024>028-033>037-041-042-045-046-049>053-221700-
CENTRAL PENNSYLVANIA

CITY           SKY/WX    TMP DP  RH WIND       PRES   REMARKS
BRADFORD       CLOUDY    47  40  76 NW12      30.09R
DUBOIS         CLOUDY    50  41  71 NW10      30.09R
CLEARFIELD     CLOUDY    52  39  61 NW14G24   30.10R
JOHNSTOWN      CLOUDY    50  44  80 NW17      30.10R
ALTOONA        CLOUDY    55  44  66 NW12      30.10R
STATE COLLEGE  CLOUDY    54  45  71 NW12      30.07R
WILLIAMSPORT   CLOUDY    60  44  55 NW12      30.02R
SELINSGROVE    PTSUNNY   65  47  52 NW14G21   30.02R
FT INDIANTOWN  PTSUNNY   63  46  55 NW8G23    30.01R
CAPITAL CITY   PTSUNNY   67  45  45 NW12G26   30.03R
HARRISBURG     PTSUNNY   68  46  45 NW20G25   30.01R
YORK           MOSUNNY   66  47  50 NW12G18   30.02R
$$

PAZ038>040-043-044-047-048-054-055-060>062-067>071-221700-
EASTERN PENNSYLVANIA

CITY           SKY/WX    TMP DP  RH WIND       PRES   REMARKS
SCRANTON       CLOUDY    57  46  66 NW16      29.99R
MOUNT POCONO   CLOUDY    55  44  66 NW17G24   29.96R
ALLENTOWN      PTSUNNY   65  47  52 NW10G22   29.95R
QUAKERTOWN*    PTSUNNY   66  48  52 NW8G17    29.97R
READING        MOSUNNY   67  47  48 NW16G22   29.97R
LANCASTER      MOSUNNY   64  45  49 NW16G25   29.99S
COATESVILLE    MOSUNNY   64  48  55 N10       29.98F
POTTSTOWN      PTSUNNY   66  49  54 NW14G23   29.97R
BLUE BELL      PTSUNNY   68  50  52 NW13G18   29.94S
DOYLESTOWN     CLOUDY    66  48  52 VRB7      29.94R
WILLOW GROVE   NOT AVBL
NORTH PHILA    PTSUNNY   72  48  42 W17G25    29.95R
PHILADELPHIA   MOSUNNY   70  49  47 NW17      29.95R
$$


USA.gov is the U.S. government's official web portal to all federal, state and local government web resources and services.